DECAYED

FENGYUN 1C DEB, 36186 (Decayed)

Orbit data source: Space-Track

FENGYUN 1C DEB, 36186 was space debris in SSO originally from a launch on Mon, 10 May 1999 UTC launched from the Taiyaun Space Center, China (TSC). Fengyun 1C debris stems from the Chinese weather satellite Fengyun-1C, which was intentionally destroyed by a Chinese anti-satellite missile in 2007. This event dramatically increased the amount of space debris, with thousands of trackable fragments posing hazards to satellites and human spaceflight. The Fengyun 1C debris cloud has become a focal point in discussions about space sustainability and the need for international regulations to prevent the creation of new debris.

Not visible in the next 10 days
Identifier
36186, 1999-025DTK
Orbit
Decayed
Country
Flag of CNCN / PRC
Related business
Manufacturer
Unknown
Mission
Decayed spacecraft
Bus & Motor
Unknown
Mass
Unknown
Launch date (UTC)
1999-05-10 (27 years ago)
Launch vehicle
Unknown
Launch site
Taiyaun Space Center, China (TSC)
Object type
Payload
Rocket body
Debris
Shape & HBR
Unknown shape, 0.1 m
Radar Cross Section
Small (<0.1 m²)

Expand to show TLE details & history
Last TLE update: 7 months ago

TLE from 7 months ago
0 FENGYUN 1C DEB
1 36186U 99025DTK 26018.40788744  .00346381  00000-0  11557-1 0  9993
2 36186  98.9802 253.6654 0003555  84.1547  95.2996 15.29544976621270
Epoch: 2026-01-18T09:47Z
TLE epoch observation values (Epoch: 2026-01-18T09:47:21.474Z)
Latitude
0.37943°
Longitude
169.06666°
Altitude
480.402 km
Speed
7.625 km/s
True Right ascension
04h 54m 54s
True Declination
0° 22' 37"
Sunlit
Object was in full shadow at epoch
Visualization orbit readout
Latitude
Unknown
Longitude
Unknown
Altitude
Unknown
Speed
Unknown
Apparent Right ascension
Unknown
Apparent Declination
Unknown
Sunlit
N/A
Visualization observer readout
Local Sidereal Time
12:46:35
Azimuth
Unknown
Elevation
Unknown
Doppler factor
Unknown
Orbital elements
Apogee altitude
476.635 km
Perigee altitude
471.763 km
Semi-major axis
6,852.336 km
Eccentricity
0.00036
Inclination
98.9802°
RAAN
253.6654°
Arg. of periapsis
84.1547°
True anomaly
95.34016°
Mean anomaly
95.2996°
Eccentric anomaly
95.31988°
Mean motion
3.82635 °/min
Orbital period
94.08 mins
BSTAR
0.011557
Loading maneuver chart data...
Computing Atmospheric mass density...

Documentation

Showing up to 5 results
|